Weather History for CWWE - April, 2013

Change the Weather History Date:

Sunday, April 7, 2013

  Actual Average Record
Temperature  
Mean Temperature 28 °F -  
Max Temperature 39 °F - - ()
Min Temperature 17 °F - - ()
Degree Days  
Heating Degree Days 37    
Moisture  
Dew Point 20 °F    
Average Humidity 59    
Maximum Humidity 83    
Minimum Humidity 35    
Precipitation  
Precipitation 0.00 in - - ()
Sea Level Pressure  
Sea Level Pressure 30.30 in    
Wind  
Wind Speed 7 mph ()    
Max Wind Speed 21 mph    
Max Gust Speed -    
T = Trace of Precipitation, MM = Missing Value Source: Averaged Metar Reports

Daily Weather History Graph

Daily Weather History Graph

Search for Another Location

Airport or City:

Trip Planner

Search our weather history database for the weather conditions in past years. The results will help you decide how hot, cold, wet, or windy it might be!

Date:

Astronomy

Apr. 07, 2013 Rise Set
Actual Time 6:48 AM ADT 7:53 PM ADT
Civil Twilight 6:19 AM ADT 8:22 PM ADT
Nautical Twilight 5:44 AM ADT 8:58 PM ADT
Astronomical Twilight 5:07 AM ADT 9:35 PM ADT
Moon 5:09 AM ADT (4/7) 5:16 PM ADT (4/7)
Length of Visible Light 14h 03m
Length of Day
13h 04m
Waning Crescent, 8% of the Moon is Illuminated
Apr 7
Waning Crescent
Apr 10
New
Apr 18
First Quarter
Apr 25
Full
May 2
Last Quarter

Hourly Weather History & Observations

Time (ADT) Temp. Windchill Dew Point Humidity Pressure Visibility Wind Dir Wind Speed Gust Speed Precip Events Conditions
12:00 AM 27 °F - 14 °F 45% 30.27 in - West 5.8 mph - -  
12:00 AM 26.6 °F 20.0 °F 14.0 °F 59% 30.27 in - West 5.8 mph - N/A   Unknown
1:00 AM 25.5 °F 18.7 °F 13.8 °F 61% 30.28 in - WNW 5.8 mph - N/A   Unknown
2:00 AM 25.2 °F 19.5 °F 14.2 °F 63% 30.30 in - West 4.6 mph - N/A   Unknown
3:00 AM 25 °F - 14 °F 49% 30.31 in - WNW 5.8 mph - -  
3:00 AM 25.0 °F 18.1 °F 13.6 °F 62% 30.31 in - WNW 5.8 mph - N/A   Unknown
4:00 AM 23.0 °F 17.0 °F 13.5 °F 67% 30.32 in - WSW 4.6 mph - N/A   Unknown
5:00 AM 23.9 °F 18.0 °F 14.5 °F 67% 30.33 in - West 4.6 mph - N/A   Unknown
6:00 AM 21 °F - 13 °F 61% 30.35 in - West 4.6 mph - -  
6:00 AM 20.7 °F 14.2 °F 13.3 °F 73% 30.35 in - West 4.6 mph - N/A   Unknown
7:00 AM 21.2 °F - 12.9 °F 70% 30.37 in - NW 2.3 mph - N/A   Unknown
8:00 AM 28.4 °F 24.6 °F 14.2 °F 55% 30.38 in - NNW 3.5 mph - N/A   Unknown
9:00 AM 33 °F - 16 °F 35% 30.37 in - North 4.6 mph - -  
9:00 AM 31.5 °F 26.8 °F 15.8 °F 52% 30.37 in - North 4.6 mph - N/A   Unknown
10:00 AM 34.2 °F 30.0 °F 12.7 °F 41% 30.36 in - NE 4.6 mph - N/A   Unknown
11:00 AM 36.1 °F 30.6 °F 15.8 °F 44% 30.36 in - East 6.9 mph - N/A   Unknown
12:00 PM 36 °F - 18 °F 35% 30.36 in - SE 9.2 mph - -  
12:00 PM 36.5 °F 29.7 °F 18.5 °F 48% 30.36 in - SE 9.2 mph - N/A   Unknown
1:00 PM 37.9 °F 32.1 °F 19.4 °F 47% 30.34 in - SSE 8.1 mph - N/A   Unknown
2:00 PM 37.6 °F 29.6 °F 19.4 °F 48% 30.32 in - South 12.7 mph - N/A   Unknown
3:00 PM 39 °F - 24 °F 41% 30.31 in - South 15.0 mph - -  
3:00 PM 38.8 °F 30.4 °F 23.7 °F 55% 30.31 in - South 15.0 mph - N/A   Unknown
4:00 PM 37.8 °F 28.6 °F 23.5 °F 57% 30.28 in - SSW 16.1 mph - N/A   Unknown
5:00 PM 36.7 °F 26.0 °F 25.2 °F 63% 30.27 in - SSW 20.7 mph - N/A   Unknown
6:00 PM 36 °F - 26 °F 57% 30.25 in - SSW 19.6 mph - -  
6:00 PM 36.0 °F 25.3 °F 26.2 °F 68% 30.25 in - SSW 19.6 mph - N/A   Unknown
7:00 PM 36.0 °F 25.3 °F 27.3 °F 71% 30.24 in - SSW 19.6 mph - N/A   Unknown
8:00 PM 35.2 °F 24.7 °F 27.9 °F 74% 30.24 in - SSW 18.4 mph - N/A   Unknown
9:00 PM 36 °F - 30 °F 71% 30.22 in - SSW 15.0 mph - -  
9:00 PM 36.0 °F 26.7 °F 30.0 °F 79% 30.22 in - SSW 15.0 mph - N/A   Unknown
10:00 PM 36.3 °F 26.8 °F 30.9 °F 81% 30.19 in - South 16.1 mph - N/A   Unknown
11:00 PM 36.5 °F 27.4 °F 31.8 °F 83% 30.19 in - SSW 15.0 mph - N/A   Unknown